Location: Nitra
(48.3167°N, 18.0833°E)
Time: 17:51:34
(UTC+01:00)

STARLINK-1756 - Pass Details

Date: 24 September 2020
Orbit: 378 x 382 km, 53.0° (Epoch: 30 October)

Event Time Altitude Azimuth Distance (km) Brightness Sun altitude
Exits shadow 03:34:40 16° 54° (NE) 1,159 6.1 -29.2°
Drops below altitude 10° 03:35:33 10° 61° (ENE) 1,485 6.7 -29.1°
Sets 03:37:43 0° 69° (ENE) 2,346 8.0 -28.8°
